User: anonymous   Login
Location: Blanot
(47.1713°N, 4.2340°E)
Time: 12:58:48
(UTC+00:00)
Language:

Cosmos 1515 - Orbit

View from above orbital plane
View from above orbital plane
View from above satellite
View from above satellite

Ground track
Ground track

The orbit data is extracted from the following two-line orbital elements,

1 14551U 83122A   20274.93908170  .00000861  00000-0  40354-4 0  9999
2 14551  82.4982  64.4130 0008638  80.6252  36.4935 15.18309993752111
Epoch (UTC): 30 September 2020 22:32:16
Eccentricity: 0.0008638
inclination: 82.4982°
perigee height: 505 km
apogee height: 517 km
right ascension of ascending node: 64.4130°
argument of perigee: 80.6252°
revolutions per day: 15.18309993
mean anomaly at epoch: 36.4935°
orbit number at epoch: 75211

The dashed part of the orbit path shows where the satellite is in the earth's shadow,  

DLR